GEFSNGP_500_meanwind_090.txt.gz
Wind_Speed
17 17 16 15 14 15 15 16 17 16 18 19 20 20 20 21 21 22 21 21 21 21 21 21 21 20 20 19 19 19 19 20 20 21 21 21 22 22 22 22 23 22 22 22
17 16 16 15 15 15 15 17 17 17 19 20 20 21 22 22 23 23 23 23 23 23 23 22 22 22 21 20 20 20 20 20 21 21 21 22 23 22 22 22 22 23 22 23
17 17 16 14 14 15 16 17 18 19 19 21 22 22 23 24 24 25 25 25 24 23 23 22 22 21 21 21 21 21 21 21 21 21 21 21 21 21 21 21 20 21 21 21
17 17 16 14 14 15 15 16 18 19 21 22 22 23 24 25 25 25 25 24 24 23 23 22 21 21 21 21 21 21 20 20 20 20 20 21 21 21 20 19 20 19 19 19
18 17 15 15 16 17 17 17 19 20 21 21 22 24 25 25 25 25 24 24 23 22 22 21 21 21 20 20 20 19 18 18 18 19 20 19 19 19 19 20 20 19 19 18
18 17 16 15 16 17 18 18 19 19 20 21 23 24 24 24 24 24 23 22 22 21 21 20 19 19 18 18 18 17 17 17 17 17 18 17 17 17 17 17 17 18 18 17
16 16 16 16 16 16 17 17 17 18 19 21 22 23 24 23 23 22 21 21 20 20 19 18 17 16 16 16 15 15 15 14 14 15 16 16 16 16 15 15 15 16 16 17
15 16 16 15 16 16 16 15 16 17 19 20 21 22 22 21 21 20 20 19 18 17 16 15 15 14 13 12 12 12 12 12 12 12 12 13 13 13 14 14 13 14 15 15
14 15 15 15 15 14 14 14 15 17 18 19 20 20 20 19 19 19 18 17 16 14 13 13 12 11 10 10 9 9 9 9 10 9 9 10 10 11 11 12 13 13 13 13
12 12 13 14 13 12 13 13 14 15 16 17 18 18 17 17 17 16 15 14 13 11 11 10 9 8 8 7 7 7 7 7 8 8 8 8 9 10 9 10 10 11 11 11
10 10 10 10 9 10 11 11 12 14 15 16 16 15 15 15 15 14 13 11 10 9 8 7 6 5 5 5 5 5 5 6 6 6 7 7 7 8 8 7 8 8 9 9
8 8 8 7 8 8 9 10 11 11 13 14 15 14 14 14 13 12 11 9 7 6 5 4 3 3 3 3 3 4 4 5 5 6 7 6 6 6 6 6 6 6 6 6
7 7 6 5 6 6 7 8 9 11 12 14 14 14 13 12 12 11 10 8 6 5 4 3 1 1 0 1 2 3 3 4 5 5 5 5 6 5 5 5 4 4 4 3
7 6 5 4 4 4 5 7 8 10 12 13 14 13 13 12 11 10 9 7 5 4 4 3 2 2 2 3 3 3 3 3 4 5 5 5 5 4 4 3 2 2 2 1
6 6 5 3 3 3 4 6 7 10 12 13 13 13 13 12 11 10 9 7 6 5 5 5 5 5 5 5 5 4 4 5 5 5 5 5 5 4 4 4 4 3 3 3
7 6 5 3 2 1 3 5 8 10 12 13 13 13 12 12 11 11 10 8 8 7 7 7 7 7 7 7 7 7 7 7 7 7 7 7 7 6 6 6 5 5 5 5
8 7 5 3 2 0 3 5 8 10 11 12 13 13 12 12 12 12 11 10 9 9 9 9 10 10 10 10 10 10 10 10 9 9 9 9 9 8 8 8 7 7 7 7
8 6 5 3 2 1 3 6 8 10 11 12 13 13 13 12 12 13 13 12 12 12 12 12 12 12 12 12 12 12 12 12 11 11 10 10 10 10 10 10 10 9 9 9
8 7 5 4 2 2 3 5 7 9 11 12 13 13 14 13 13 13 14 14 14 14 14 14 14 14 14 14 13 13 13 13 13 13 12 12 12 12 12 11 11 11 11 11
9 8 6 5 3 3 4 5 7 8 10 12 13 13 14 15 14 14 14 15 15 15 15 14 14 14 14 14 14 14 14 14 14 14 15 14 14 14 14 13 13 13 13 13
11 9 7 6 5 4 5 6 7 8 10 12 13 14 15 15 15 15 15 15 15 15 15 16 16 15 15 15 15 14 15 15 15 16 16 16 16 16 15 15 15 15 14 13
12 10 9 7 6 5 5 6 6 8 9 11 12 13 14 15 15 15 16 16 16 16 16 17 17 16 16 16 16 16 16 16 16 17 17 17 16 16 16 16 15 15 14 14
14 12 11 9 8 7 6 6 6 6 8 9 11 12 13 14 15 15 16 16 16 16 17 17 17 17 17 18 18 18 17 17 17 17 16 16 16 16 15 15 15 15 14 14
15 14 12 11 9 8 7 6 6 6 7 8 10 11 12 13 14 15 16 16 16 16 17 17 17 18 18 19 19 19 18 18 17 17 17 16 16 15 15 15 14 14 14 14
18 16 14 13 11 10 9 8 7 6 7 7 8 9 10 12 13 14 15 15 16 16 16 17 17 18 18 18 18 18 18 17 17 16 16 15 15 15 15 14 14 14 13 13
20 19 17 15 14 12 11 10 9 8 7 7 8 8 9 10 11 12 13 14 14 15 15 16 16 16 17 17 17 17 17 16 15 15 15 14 14 14 14 14 13 13 13 12
23 21 20 18 16 15 13 12 11 10 9 8 8 8 8 8 9 10 11 11 12 13 13 14 14 14 15 15 15 15 15 14 14 14 14 13 13 13 13 12 12 11 11 11

GEFSNGP_500_meanwind_096.txt.gz
Wind_Speed
16 16 16 15 16 16 16 16 16 16 18 19 20 20 21 21 21 22 22 23 23 23 23 24 24 24 24 24 24 24 24 23 23 23 24 23 23 24 24 24 23 23 23 23
16 16 15 15 16 17 17 17 17 18 19 20 21 21 22 22 22 23 23 24 25 25 25 25 25 25 24 24 25 25 25 24 23 23 24 24 24 24 23 23 23 23 23 23
15 15 15 15 15 16 17 18 18 19 19 20 21 22 23 23 24 24 25 26 27 27 26 26 25 25 24 24 24 24 24 24 24 23 23 23 23 22 22 22 22 22 23 23
13 13 15 15 15 16 18 18 18 19 20 21 22 23 23 24 25 25 26 26 26 26 25 25 24 23 23 23 22 22 22 23 23 22 22 21 21 21 21 20 20 21 20 19
13 14 14 16 16 16 16 18 19 20 21 22 22 23 23 24 25 25 26 26 25 25 24 23 22 22 21 21 20 20 20 20 20 20 19 19 19 19 19 18 17 17 16 15
12 13 15 16 15 15 16 19 19 20 20 21 21 21 22 23 24 24 24 24 24 24 22 21 21 20 19 19 19 18 17 16 16 16 16 16 16 16 16 16 15 15 15 14
11 12 14 14 13 14 16 18 18 18 19 19 19 21 22 23 23 23 23 22 22 21 20 19 19 18 17 17 15 14 14 14 13 12 12 12 12 13 13 13 13 12 12 11
11 12 13 12 13 14 15 16 16 17 18 18 19 20 21 22 22 21 21 20 19 18 18 17 17 16 14 13 11 10 10 10 9 10 10 10 9 10 10 11 11 10 11 10
10 11 11 11 12 12 12 14 15 15 16 17 19 20 20 20 20 20 19 18 17 17 16 15 14 13 10 9 8 7 7 7 7 8 8 8 8 8 9 9 10 9 8 8
8 9 9 10 10 10 11 12 12 13 14 16 18 18 18 19 19 18 17 16 15 14 13 12 11 9 7 6 5 4 4 5 6 6 6 6 6 7 8 7 7 7 7 7
7 7 8 9 9 9 9 10 11 12 14 16 17 17 17 18 17 16 15 14 13 12 11 9 7 6 4 3 2 3 3 4 4 5 7 6 6 6 6 6 6 6 6 5
6 6 7 8 8 8 8 9 10 12 13 15 16 16 16 16 16 15 13 12 10 9 7 6 4 2 1 0 1 2 3 3 3 5 6 6 6 6 6 5 5 4 5 5
4 4 5 5 5 6 8 9 9 11 13 14 15 15 15 15 14 13 12 10 9 7 5 4 3 2 2 3 3 3 3 4 4 5 6 7 7 6 6 6 5 4 4 4
3 2 3 4 5 6 7 8 9 10 12 13 14 14 13 13 13 12 11 9 7 6 5 4 4 4 5 5 5 5 6 6 6 6 7 7 7 6 6 6 6 6 5 5
1 2 2 3 4 4 6 7 9 10 11 12 13 13 13 13 12 11 10 8 7 7 6 6 6 6 6 6 7 7 7 7 8 8 9 8 8 8 8 8 8 8 8 7
0 1 2 2 2 3 5 6 8 10 11 12 12 12 12 12 11 11 10 9 9 8 9 9 8 8 8 8 8 8 8 9 9 9 10 10 10 10 10 10 10 10 10 9
1 1 1 1 2 3 5 7 8 10 11 11 11 11 11 12 11 11 11 11 10 10 10 10 10 10 10 10 10 10 11 11 11 11 11 11 11 12 12 12 12 11 11 11
1 1 1 1 2 4 5 7 8 9 10 11 11 11 11 11 11 11 11 11 11 11 11 11 11 11 12 12 12 13 13 13 13 13 13 13 14 14 14 13 13 12 12 12
0 0 0 1 2 3 5 6 8 9 10 10 10 10 11 11 11 11 11 11 11 12 12 12 12 12 13 13 14 14 15 15 15 15 15 15 15 15 15 15 14 14 14 14
1 1 1 1 1 2 4 6 7 8 9 9 9 10 11 11 12 12 12 12 12 12 12 12 12 12 13 14 15 16 16 16 16 16 17 17 17 16 16 16 15 15 15 15
3 3 2 2 0 1 3 5 6 8 8 9 10 10 11 12 12 12 12 13 12 12 12 12 13 13 14 15 15 16 17 17 17 17 17 17 17 17 16 16 16 16 15 15
5 4 3 2 1 1 2 3 4 6 7 9 10 11 12 12 12 12 13 13 13 13 13 13 14 14 15 16 16 17 17 17 17 17 17 17 17 16 16 16 16 15 15 15
7 6 5 3 2 1 0 1 2 4 5 7 9 10 11 12 12 12 13 13 13 13 14 14 14 15 15 16 16 17 17 17 17 17 17 16 16 16 16 16 16 15 15 15
9 8 7 5 4 3 2 1 1 2 3 5 7 8 9 10 11 12 12 13 13 13 13 14 14 15 15 15 16 16 16 16 16 16 16 16 15 15 15 15 15 15 14 14
11 10 9 8 6 5 4 3 3 2 2 3 4 6 7 8 10 11 11 12 12 13 13 14 14 14 15 15 15 15 16 15 15 15 15 15 14 14 14 14 13 13 13 12
13 13 12 10 9 8 7 6 5 4 3 3 3 4 5 6 8 9 10 10 11 12 12 13 13 13 14 14 15 15 15 15 14 14 14 14 13 13 13 12 12 11 11 10
16 16 15 14 12 11 10 9 8 6 5 4 3 3 4 4 5 6 7 8 9 9 10 11 12 12 12 13 13 13 13 13 12 12 12 12 11 11 11 10 10 9 9 8

GEFSNGP_500_meanwind_102.txt.gz
Wind_Speed
16 15 16 15 14 15 16 17 18 21 24 26 25 24 25 25 25 25 26 26 26 26 26 26 26 26 26 26 26 26 26 25 25 24 24 24 24 23 23 23 24 24 23 23
15 14 15 15 16 17 18 18 21 23 24 26 27 27 27 28 28 26 27 27 27 26 27 27 27 26 26 26 26 26 26 25 25 24 24 24 24 24 23 23 23 23 23 22
13 14 15 16 16 18 19 20 22 22 24 27 28 28 28 28 27 26 27 26 26 26 26 27 26 27 27 27 26 26 25 24 24 23 23 23 23 23 23 23 23 22 22 21
13 14 16 15 16 18 19 21 22 21 23 24 26 26 26 26 25 26 26 26 26 26 26 26 26 26 26 26 25 24 23 22 21 21 21 21 21 21 21 22 21 20 20 18
12 13 15 15 18 18 19 20 20 22 23 23 24 25 25 25 26 27 27 26 26 26 26 26 25 25 24 24 23 22 21 20 20 19 19 19 18 18 18 17 17 17 17 16
11 13 15 16 17 16 18 21 21 22 23 23 23 24 24 25 26 25 25 24 24 24 24 24 24 23 23 22 20 20 19 18 18 17 17 16 16 15 15 14 14 14 13 13
11 13 15 16 16 16 17 19 20 21 21 22 23 23 24 24 24 24 23 23 22 22 22 22 21 21 20 19 18 17 16 16 15 14 13 13 12 12 11 11 10 10 9 9
12 13 15 15 15 16 17 18 19 20 20 20 21 22 22 22 23 23 23 21 20 20 20 19 19 18 17 16 15 14 13 12 12 11 10 10 9 8 7 8 9 9 8 8
11 12 13 14 14 14 15 16 17 18 18 19 20 21 21 22 22 22 21 19 19 19 18 17 16 15 14 13 12 11 10 10 9 9 8 8 7 6 6 7 7 7 7 6
10 10 11 11 12 13 13 14 14 15 17 18 19 20 21 20 20 19 18 17 16 16 15 14 13 12 11 11 9 8 7 7 6 5 5 5 5 5 5 5 5 5 5 5
9 9 9 9 10 11 12 13 13 14 16 17 18 19 19 18 18 17 16 14 14 13 12 11 10 9 8 7 6 5 4 3 3 3 3 3 3 3 3 3 3 3 3 4
7 7 7 8 9 10 11 11 12 14 15 16 18 18 17 16 15 14 14 13 12 11 10 8 7 7 6 5 3 2 1 1 1 2 2 2 2 2 2 3 2 2 3 3
6 6 7 8 8 9 10 11 12 13 15 16 17 17 16 15 14 13 12 11 10 9 8 7 6 5 4 3 2 1 1 1 2 2 3 2 3 3 4 4 4 4 4 5
5 5 6 6 7 8 9 11 12 13 15 15 16 16 15 14 12 11 11 10 9 8 7 6 5 4 4 4 3 3 2 3 3 3 4 4 4 5 5 4 5 5 5 6
5 5 5 6 7 8 9 10 11 13 14 15 15 15 14 13 12 11 10 10 9 8 7 6 5 5 5 5 5 4 4 4 5 5 6 6 6 6 7 7 7 7 8 8
5 5 5 6 7 8 9 10 11 12 14 15 15 14 13 12 12 11 10 9 9 8 7 7 6 6 6 6 6 6 6 6 6 7 7 7 8 8 8 9 9 9 9 9
5 5 5 6 7 8 9 10 11 13 13 14 14 14 13 12 12 11 10 10 9 8 8 8 8 7 7 7 8 8 8 9 9 9 9 9 10 10 10 10 11 11 11 11
5 5 5 6 7 8 9 10 11 12 13 13 14 13 13 12 12 12 11 11 10 10 10 10 9 9 9 9 10 10 11 11 11 11 11 11 12 12 12 12 13 13 13 13
5 5 5 6 7 8 9 10 10 11 11 13 13 13 12 12 12 12 12 11 11 11 11 11 10 10 10 11 11 11 11 12 12 12 13 13 14 14 14 14 15 15 15 15
4 5 5 5 6 7 9 9 10 10 11 11 12 12 12 12 12 11 11 11 11 11 11 11 11 11 10 10 11 12 12 12 13 14 14 14 14 15 15 16 16 17 16 16
4 4 4 5 5 6 7 8 9 9 10 10 11 12 12 12 11 11 11 11 11 11 11 11 11 12 12 12 12 13 13 13 14 14 15 15 15 15 15 16 16 16 16 15
5 4 4 4 4 5 6 7 8 8 9 10 10 11 11 11 11 11 11 11 11 11 11 11 12 12 12 13 13 13 14 14 14 14 14 14 14 14 15 15 15 15 15 15
5 5 4 4 4 3 4 5 6 7 7 8 9 10 10 11 11 11 11 11 11 11 11 11 11 12 12 12 12 13 14 14 14 14 14 14 14 14 14 14 14 13 14 14
6 5 5 4 4 3 3 3 3 4 5 6 7 8 9 10 10 10 10 10 10 10 10 10 10 11 11 12 12 13 13 13 14 13 13 14 13 13 13 13 13 13 13 13
7 7 6 6 5 4 4 3 2 2 3 4 5 6 7 7 8 8 9 8 8 8 9 9 9 10 10 10 11 11 12 12 12 12 12 12 12 12 12 12 11 11 11 11
9 9 8 7 7 7 6 5 4 3 2 2 3 3 4 5 5 6 6 6 6 6 7 7 8 8 9 9 9 9 9 10 10 10 10 10 10 10 10 9 9 9 9 9
12 11 11 10 9 9 8 7 7 6 5 4 3 2 2 2 2 3 3 3 4 4 5 5 5 6 6 6 7 7 7 7 7 8 8 8 8 8 8 7 7 7 7 6

GEFSNGP_500_meanwind_108.txt.gz
Wind_Speed
13 15 16 17 18 19 19 19 20 21 22 22 22 22 23 22 21 22 23 23 23 24 24 25 25 25 25 25 25 25 25 25 25 25 25 25 24 24 24 23 24 24 23 23
12 14 15 16 18 19 18 19 20 21 21 21 22 23 23 24 23 24 24 24 25 25 25 26 25 25 26 26 25 25 25 25 25 24 24 24 24 24 23 23 23 23 23 23
12 13 14 15 16 16 17 18 19 19 20 22 23 23 24 23 24 25 24 25 25 25 25 26 25 25 25 25 25 24 23 23 23 23 23 23 23 22 22 21 21 21 21 21
12 13 13 14 15 15 15 16 17 18 20 21 22 22 22 24 25 25 24 24 24 23 23 23 23 23 23 23 23 22 22 21 22 22 22 21 21 21 20 19 19 19 19 18
10 12 12 12 13 14 14 14 16 18 19 20 21 22 23 24 24 24 24 23 23 22 22 22 22 22 22 22 21 21 20 20 20 20 19 19 19 18 17 16 16 16 16 15
10 10 10 10 11 13 14 15 16 16 18 19 20 21 22 22 23 22 21 21 21 21 21 21 21 21 21 20 20 20 19 19 18 17 17 16 15 14 14 14 13 13 13 13
9 9 9 10 10 11 12 13 14 15 16 17 19 20 21 21 21 20 20 20 20 19 19 19 19 19 19 18 17 17 16 16 16 15 14 14 12 11 11 11 10 10 10 9
7 8 8 9 9 10 11 12 13 14 15 17 19 19 20 20 20 20 19 19 18 18 17 17 17 16 16 15 14 14 14 13 13 11 10 10 9 8 8 8 8 7 6 5
5 5 7 7 7 8 9 11 13 14 16 17 18 19 19 18 18 18 18 17 17 16 15 14 13 13 13 12 11 10 10 9 8 7 7 6 5 5 5 4 4 4 4 4
4 4 5 6 7 8 10 12 13 14 16 17 18 17 17 16 16 16 16 15 15 14 13 11 11 11 9 8 7 6 5 4 4 4 3 3 2 2 2 2 2 2 2 4
4 4 5 6 6 8 10 11 13 14 16 16 16 15 15 15 15 15 14 13 12 11 10 9 8 7 6 6 5 4 4 3 2 2 1 0 0 1 2 2 2 3 3 5
5 5 6 6 7 8 10 12 14 15 15 15 15 14 14 14 14 13 12 11 10 9 8 8 7 6 6 5 5 4 4 3 2 2 3 3 4 4 4 4 5 6 6 6
6 7 6 7 8 9 10 12 14 15 15 14 15 14 14 13 13 12 11 10 9 8 8 8 7 7 6 5 5 5 5 4 4 5 6 6 6 6 7 7 7 8 8 7
6 7 7 7 8 9 11 12 14 15 15 15 15 14 13 12 12 12 11 10 10 9 8 8 8 7 7 6 6 6 6 6 7 7 7 7 7 7 8 8 9 9 9 9
7 7 7 7 8 9 11 12 14 15 15 14 14 14 13 12 12 12 11 11 10 10 9 9 8 8 7 7 8 8 9 9 8 8 8 8 8 8 9 9 10 10 10 10
7 7 7 7 8 9 11 12 14 14 14 14 14 14 13 13 13 12 12 12 11 10 10 10 9 10 9 9 10 10 10 10 10 10 10 11 10 10 11 11 11 11 12 12
8 8 7 8 8 9 10 12 13 14 14 14 14 14 13 13 13 13 13 13 12 12 11 11 11 11 11 11 11 11 11 11 11 12 12 12 13 13 13 14 14 15 15 15
8 8 7 7 8 8 10 11 13 13 14 14 14 14 14 14 14 14 13 13 14 13 13 13 13 13 12 12 12 13 13 13 13 14 14 14 15 15 15 16 16 17 17 17
8 7 7 6 7 8 9 11 12 12 13 13 13 13 13 14 14 13 13 13 13 13 13 13 13 14 13 13 14 14 14 14 15 15 16 16 17 17 17 17 18 18 18 18
7 7 6 6 6 7 8 10 11 12 12 12 13 13 13 13 13 13 13 13 13 13 13 13 14 14 14 14 14 15 15 15 16 16 17 18 18 18 18 18 18 18 18 18
6 6 6 6 5 6 7 8 9 10 11 12 12 12 12 13 13 13 13 13 13 13 13 13 14 14 14 14 14 14 15 15 16 17 18 18 19 18 18 18 18 18 18 19
6 6 6 6 5 5 6 6 7 8 9 10 11 11 11 11 12 12 13 13 13 13 13 13 13 14 14 14 14 14 15 15 16 16 17 17 17 17 17 17 17 17 18 18
5 5 5 5 5 5 5 6 6 7 7 8 9 9 10 10 10 11 12 12 13 13 13 13 13 13 13 13 14 14 14 15 15 15 15 16 16 17 17 16 17 17 17 17
5 5 5 5 5 5 5 5 5 5 5 6 6 7 8 8 8 9 9 10 10 11 11 12 12 12 12 12 13 13 13 13 13 14 14 14 15 15 15 15 15 15 15 15
7 6 6 6 6 6 5 4 4 4 4 4 4 4 5 5 6 6 7 7 8 8 9 9 10 10 11 11 11 12 12 12 12 13 13 13 13 13 13 13 13 13 13 13
9 9 8 8 8 7 6 5 5 4 4 4 3 3 2 3 3 3 4 4 5 5 6 6 7 7 8 8 8 9 9 10 10 10 10 10 10 11 11 11 11 11 11 10
12 11 11 11 10 9 9 8 7 7 7 6 6 5 5 3 2 2 1 1 1 2 2 3 3 4 4 5 5 6 6 7 8 8 8 8 9 9 9 9 9 9 8 8

GEFSNGP_500_meanwind_114.txt.gz
Wind_Speed
11 11 12 12 13 13 14 14 15 16 16 15 16 17 18 19 20 21 21 22 23 23 23 24 25 26 26 26 26 26 26 25 25 25 25 25 25 25 25 25 25 25 25 26
10 11 11 11 12 12 13 14 15 16 16 17 18 19 19 20 21 21 22 23 24 23 23 24 24 25 26 26 26 25 24 25 25 25 25 24 24 25 25 24 25 24 25 25
9 10 10 11 11 12 13 14 15 16 17 17 18 18 19 20 21 22 23 24 23 23 23 23 24 24 24 24 24 23 23 23 23 24 24 23 23 23 23 23 23 23 23 22
9 9 9 10 11 12 13 13 15 16 17 17 17 17 19 20 21 22 22 22 21 23 23 22 23 23 22 22 22 21 22 22 22 22 22 22 22 22 21 21 20 20 20 21
9 9 9 9 10 11 11 12 13 14 15 16 16 18 19 20 20 20 20 20 21 21 21 21 21 21 21 21 22 22 21 22 22 22 21 21 20 19 19 18 18 18 18 18
8 8 8 8 9 10 10 11 12 13 14 15 16 18 18 19 18 19 19 19 19 20 19 19 20 20 20 20 20 19 19 19 19 19 19 18 18 17 17 17 16 15 15 15
5 6 6 6 7 8 9 10 11 13 14 15 16 16 17 18 18 19 19 18 18 18 18 18 18 18 18 18 17 17 17 17 16 16 15 15 15 15 14 13 13 12 11 11
3 3 4 5 6 7 8 10 11 12 13 14 15 17 18 18 19 18 18 18 17 16 16 16 15 15 15 15 14 14 14 13 13 13 12 12 11 10 10 9 9 8 8 8
2 3 3 4 5 6 8 10 12 13 14 16 17 17 18 18 17 17 17 16 15 15 14 13 13 13 13 12 11 11 10 9 10 9 9 8 7 7 7 6 6 5 4 4
3 4 4 5 6 7 9 10 12 13 15 16 17 17 17 17 16 15 15 14 13 12 11 11 11 10 10 9 9 8 8 7 7 6 6 5 4 4 4 3 3 2 2 2
5 5 5 6 7 8 10 11 13 14 16 17 17 17 16 15 14 14 13 12 11 10 9 9 8 8 7 7 7 6 5 5 4 4 3 3 2 1 1 0 1 1 2 2
5 6 6 6 7 9 10 12 13 14 15 16 16 16 15 15 14 13 13 11 10 9 8 7 6 6 5 5 4 3 3 2 3 2 3 3 3 3 3 3 3 4 4 5
6 6 6 7 8 9 10 12 13 14 15 15 16 15 15 15 14 14 13 11 11 9 8 7 6 5 5 5 4 4 4 3 4 4 4 4 4 4 4 4 5 5 5 6
6 6 7 8 9 10 11 12 13 15 15 15 15 15 15 14 14 14 14 13 11 10 9 8 7 6 5 5 5 5 4 4 4 5 5 5 5 6 6 6 6 7 7 8
6 6 7 8 8 10 11 12 13 14 15 15 15 15 15 14 14 14 14 13 12 11 10 9 9 8 7 7 7 7 6 6 6 6 6 7 8 8 8 8 8 8 9 10
6 7 8 8 9 10 11 12 13 13 15 15 15 15 15 15 15 14 14 14 13 13 12 11 10 10 9 9 9 9 8 8 8 9 9 10 10 10 10 10 10 11 12 12
7 7 8 9 9 10 11 12 12 13 14 14 15 15 15 15 14 14 14 14 14 13 13 12 12 11 10 10 11 11 11 10 11 11 11 11 11 11 11 12 13 14 14 14
7 7 7 8 9 9 10 11 12 12 13 13 14 15 15 15 14 14 14 14 14 13 13 13 13 12 12 12 12 12 11 11 12 12 12 12 13 13 14 14 15 15 15 14
7 7 7 8 9 9 10 10 11 12 12 13 13 14 14 14 14 13 13 13 13 13 13 13 13 13 13 12 12 12 12 12 12 12 13 13 14 15 15 15 15 15 15 15
6 6 7 7 8 9 9 10 10 11 12 12 12 12 13 13 13 13 13 13 13 12 12 12 12 12 12 12 12 12 12 12 13 13 13 14 14 14 14 14 15 15 15 16
5 6 6 7 8 8 9 9 10 10 11 11 11 11 12 12 12 12 12 12 12 12 12 12 11 11 12 11 11 11 12 12 13 13 13 13 13 14 14 14 14 14 15 15
5 5 6 7 7 8 8 9 9 9 9 10 10 10 10 10 11 11 11 11 11 11 11 11 11 11 10 10 10 10 11 11 11 12 12 12 13 13 13 13 13 13 13 13
5 5 6 7 7 8 8 8 8 8 8 9 9 9 9 9 9 10 10 10 10 10 10 9 9 9 9 9 9 9 10 10 10 10 11 11 11 12 12 12 12 12 12 12
6 6 7 7 7 7 7 8 8 8 7 7 7 8 8 8 8 8 8 8 8 8 8 8 8 7 7 7 7 7 8 8 8 9 9 9 9 10 10 10 10 10 10 10
8 8 8 8 8 7 7 8 8 8 7 7 6 6 6 7 6 6 7 7 6 6 6 6 5 5 5 5 5 5 5 5 5 6 6 7 7 8 8 8 8 7 7 7
10 10 10 10 9 9 9 9 9 9 8 8 7 7 6 6 6 6 6 6 6 5 5 4 3 3 3 3 2 2 2 2 2 3 4 5 5 6 5 5 5 5 5 5
12 12 12 12 11 11 11 10 10 10 10 10 9 9 8 7 7 7 6 6 6 5 5 4 3 3 2 2 1 1 1 2 2 3 4 4 5 5 5 5 5 5 5 5

GEFSNGP_500_meanwind_120.txt.gz
Wind_Speed
11 12 12 11 12 12 13 13 14 15 16 16 16 17 17 18 19 20 21 22 22 23 24 24 25 25 25 26 26 26 26 26 27 27 28 27 27 27 28 28 28 28 29 29
9 9 10 10 10 12 13 13 14 15 15 15 16 16 18 19 20 20 21 22 23 23 24 24 24 24 24 24 25 25 26 27 27 27 27 27 26 26 26 26 27 27 27 28
8 8 7 8 9 10 11 11 12 13 13 14 15 16 17 19 20 20 21 21 22 22 23 23 23 23 24 24 25 25 25 26 26 25 25 25 24 25 25 25 26 26 25 26
7 7 7 7 8 8 8 9 10 11 12 14 15 16 17 18 19 19 19 20 21 21 21 22 22 22 22 23 24 24 25 25 24 24 23 23 23 23 22 23 23 23 23 22
5 5 6 5 5 6 7 8 8 10 11 13 14 15 16 17 17 18 19 19 20 20 20 20 21 21 21 21 22 22 23 22 22 22 22 22 22 22 21 21 21 21 21 20
3 3 4 4 4 5 6 8 9 11 11 12 14 15 16 16 16 17 18 18 18 19 18 18 18 17 17 18 19 20 20 20 20 20 20 20 20 19 18 18 18 18 18 18
3 3 3 3 4 5 6 8 9 10 12 13 14 14 15 15 16 16 17 17 16 16 16 16 16 16 16 16 16 16 17 17 17 17 17 17 16 15 14 14 14 14 14 14
1 1 2 3 4 4 6 8 9 10 11 12 13 14 14 14 15 15 16 15 15 14 13 13 13 13 14 14 14 14 14 13 12 13 13 12 12 11 11 10 11 11 11 11
1 1 2 3 4 5 6 7 8 10 11 13 13 14 14 13 14 14 14 13 13 11 11 11 10 10 11 11 11 11 10 10 10 10 9 9 8 8 7 7 7 7 7 7
2 2 3 4 5 6 7 8 9 11 12 13 14 14 14 13 14 14 13 12 11 9 9 8 9 9 9 8 8 7 7 7 7 7 6 6 6 5 5 4 4 4 4 4
3 4 4 5 6 7 8 9 10 12 13 13 14 15 14 14 14 14 13 12 10 9 8 8 8 7 7 7 6 6 6 6 5 4 4 4 3 3 2 2 2 2 2 1
4 4 5 5 6 7 8 10 11 12 13 13 14 14 14 14 14 14 13 12 10 9 8 8 7 6 6 6 6 5 5 4 4 4 4 3 2 2 2 2 1 1 1 1
4 5 5 6 7 8 9 10 11 12 13 13 14 15 15 15 15 14 14 13 11 10 9 8 7 6 6 6 6 5 5 5 4 4 3 3 3 3 4 4 3 3 3 3
5 5 6 7 7 8 9 10 11 12 12 13 14 15 16 16 15 15 15 14 12 11 10 9 8 7 7 7 7 6 6 6 5 5 5 5 5 5 4 5 5 5 5 5
5 6 7 8 8 9 9 10 11 12 12 13 14 15 17 17 16 16 15 15 14 13 13 12 11 10 9 9 9 9 8 8 8 7 7 7 6 6 6 6 6 6 7 7
6 6 7 8 8 9 10 10 11 11 12 12 13 15 16 16 16 16 16 15 15 14 14 14 13 12 11 11 10 10 10 9 9 9 8 8 8 8 8 8 8 8 8 9
6 7 8 8 9 10 10 11 11 11 11 11 13 14 15 15 16 16 16 16 15 15 14 14 14 13 13 12 11 11 11 10 10 9 10 10 10 10 10 10 10 10 10 11
7 7 8 8 9 10 10 11 11 11 11 11 12 13 14 15 15 15 15 15 15 15 15 15 15 14 13 13 12 12 11 11 11 11 11 11 11 12 12 12 12 13 14 14
8 8 8 8 9 9 10 10 10 11 11 12 12 13 13 13 14 14 14 14 14 14 14 15 15 14 14 13 13 13 13 13 13 13 13 13 13 13 13 14 14 14 15 15
8 8 8 9 9 9 9 10 10 10 10 11 11 12 12 12 13 13 14 14 13 13 13 13 14 14 14 13 13 13 13 13 13 13 13 14 14 14 14 13 14 14 14 14
8 8 8 8 9 9 9 9 10 10 10 10 11 11 11 12 12 12 12 12 12 12 12 12 12 12 13 12 12 12 12 12 12 12 12 12 12 12 12 12 13 13 13 13
8 8 8 8 8 9 9 9 10 10 10 10 10 10 10 11 11 11 11 11 11 11 11 11 11 11 11 11 11 11 11 11 11 11 11 11 11 11 11 11 11 11 11 11
7 8 9 9 9 8 8 9 9 10 10 10 9 9 10 10 10 10 10 10 10 10 9 9 9 9 9 9 9 9 9 9 9 9 9 9 9 9 9 9 9 9 9 9
7 8 8 9 9 9 8 8 9 9 10 10 9 9 9 9 9 9 9 9 9 8 8 7 7 7 7 7 7 6 6 5 5 5 5 5 6 6 6 6 6 6 6 6
6 7 8 9 9 9 9 9 9 9 9 9 9 9 8 8 8 8 8 8 7 7 7 6 6 6 5 5 5 4 4 4 3 3 2 2 2 3 3 3 3 3 3 3
5 7 8 9 10 10 10 10 10 10 10 10 9 9 9 9 9 8 8 8 7 7 6 6 5 5 4 4 4 3 3 2 2 1 1 1 2 2 2 2 3 3 4 4
7 7 8 9 10 11 11 11 11 11 11 11 11 10 10 10 10 10 10 9 9 8 8 8 7 6 6 6 5 5 5 5 4 4 4 5 5 5 6 6 6 7 7 7

GEFSNGP_500_meanwind_126.txt.gz
Wind_Speed
11 11 11 11 12 14 16 17 18 19 21 21 21 22 23 23 24 25 26 27 27 27 27 27 27 27 27 25 25 25 25 26 26 26 27 26 26 26 26 27 28 28 27 27
9 8 9 11 12 13 15 16 17 19 20 20 20 21 22 23 24 24 25 25 25 26 26 26 26 26 26 26 26 26 25 25 25 26 26 26 25 25 26 26 26 26 27 27
7 8 9 9 11 12 14 14 16 17 18 19 20 21 22 22 22 23 23 23 23 24 23 24 24 24 24 24 24 24 23 23 24 24 24 24 24 25 25 25 25 25 25 24
6 7 8 9 10 11 12 14 15 16 16 18 19 21 21 21 22 22 22 22 22 22 22 22 23 23 23 24 24 23 23 24 24 24 24 23 23 24 23 22 22 22 22 22
5 6 8 10 10 11 12 12 13 14 15 17 19 20 20 21 21 21 21 21 21 21 21 21 21 21 21 21 21 21 22 22 22 23 22 22 22 22 22 21 21 20 19 19
5 6 8 9 9 9 11 12 13 14 14 16 17 18 19 19 20 20 20 20 20 20 19 19 20 20 20 20 20 20 20 20 20 21 20 20 20 20 19 18 18 18 18 18
6 7 8 7 7 8 10 11 12 13 14 15 16 17 18 18 18 19 19 18 18 17 17 17 18 17 17 17 18 18 17 17 16 16 15 16 17 17 17 16 16 16 16 16
6 6 6 7 7 8 9 10 11 12 13 14 15 16 16 17 17 17 17 16 16 16 16 16 15 15 15 15 15 15 15 14 14 13 14 14 14 14 14 14 13 13 13 13
6 6 6 6 6 7 8 9 10 11 12 13 14 14 15 17 17 17 16 15 15 15 14 14 13 12 12 11 11 11 11 11 12 12 12 12 11 11 10 11 10 10 10 10
4 4 5 5 6 6 7 8 10 11 12 13 14 14 15 16 16 16 16 15 15 14 12 11 10 9 9 9 9 9 9 10 10 10 9 9 9 8 8 8 8 7 7 7
3 3 4 4 5 6 7 8 9 10 11 12 13 14 16 16 16 16 16 14 13 12 11 10 9 8 8 8 8 9 9 9 8 8 8 8 8 7 6 5 5 5 5 5
2 3 3 4 5 6 7 8 9 10 11 12 13 14 15 16 16 16 16 14 13 12 11 9 9 8 8 7 8 8 8 7 6 7 7 6 6 5 4 4 3 3 3 3
2 3 3 4 4 6 7 8 9 9 10 11 13 14 15 16 16 16 16 15 14 13 12 10 9 8 7 7 7 7 7 7 6 6 6 6 6 5 5 5 4 5 5 4
2 2 3 4 4 5 6 7 8 9 10 11 12 13 15 15 16 16 15 15 15 14 13 12 10 9 8 8 8 8 8 7 7 7 7 7 6 6 6 6 6 6 6 6
2 2 3 3 4 5 6 7 8 9 10 11 12 13 14 15 15 15 15 15 15 15 14 13 12 10 10 9 9 9 9 8 8 8 7 7 7 7 7 7 6 6 6 7
3 3 3 3 4 5 6 7 8 8 9 11 12 13 14 14 14 14 15 15 15 15 15 14 13 12 11 10 10 10 10 10 9 9 8 8 9 9 9 8 8 8 8 8
3 3 4 4 5 6 7 7 8 9 9 10 11 12 13 13 14 14 14 14 15 15 15 15 14 14 13 12 12 12 11 11 11 10 9 9 9 9 9 9 9 9 9 9
4 4 4 5 5 6 6 7 8 8 9 10 11 12 12 13 13 14 14 14 14 14 14 14 14 14 14 14 13 13 12 12 12 11 11 10 10 10 10 10 10 9 9 9
4 5 5 5 6 6 6 7 8 8 9 10 11 11 12 12 12 13 13 14 14 13 13 14 14 14 14 14 14 14 13 13 13 12 11 11 11 11 11 11 10 10 10 10
5 5 6 6 6 7 7 7 8 9 9 10 11 11 11 12 12 12 13 13 13 13 13 13 13 13 13 13 13 13 14 13 13 13 12 12 11 11 11 10 10 10 10 10
5 5 6 6 7 7 7 8 8 9 10 10 11 11 12 12 11 11 12 12 12 13 12 12 12 12 12 12 12 12 12 12 12 12 11 11 10 10 10 9 9 9 8 8
4 5 6 6 7 7 7 8 8 8 9 10 10 11 12 12 12 11 11 11 11 12 12 12 12 12 12 12 11 11 10 10 10 9 9 9 8 8 8 8 7 7 6 6
4 4 5 6 7 8 8 8 9 9 9 9 10 10 11 12 11 11 11 11 11 11 11 11 11 11 11 11 11 10 9 9 8 8 7 6 6 5 5 5 5 5 4 4
3 4 4 5 6 7 8 9 9 10 10 10 10 10 11 11 11 11 11 11 10 10 10 10 11 11 10 10 9 9 9 8 7 7 6 5 4 4 4 3 3 3 2 1
3 4 4 5 6 7 7 8 9 10 10 10 10 10 11 11 11 11 11 11 11 10 10 10 10 10 10 9 8 8 8 8 7 7 6 5 5 4 3 3 3 3 3 4
4 4 5 6 7 7 8 8 9 10 10 11 11 11 11 12 12 12 12 12 11 11 11 11 11 11 10 10 9 9 9 8 8 8 8 7 7 7 6 6 7 7 7 8
6 6 7 7 8 8 9 9 10 10 11 11 12 12 13 13 13 13 13 13 13 13 13 13 12 12 12 12 11 10 10 10 10 10 10 10 10 10 10 10 10 11 11 12

GEFSNGP_500_meanwind_132.txt.gz
Wind_Speed
10 10 10 11 10 11 12 12 13 14 15 16 17 18 18 19 20 20 21 21 21 20 21 22 22 23 23 23 23 23 22 21 21 21 22 22 23 23 23 23 23 24 25 24
9 10 10 8 7 9 10 11 12 13 14 16 17 18 19 20 21 20 20 20 21 20 21 21 22 22 22 22 22 21 20 20 21 21 22 22 23 24 23 23 22 23 23 23
8 9 9 8 8 9 9 11 12 14 14 16 18 19 20 20 20 20 19 19 20 20 20 20 20 21 21 21 21 21 21 21 21 21 21 22 22 22 22 22 22 22 22 22
6 7 8 8 8 8 9 10 12 13 14 15 16 17 19 19 19 19 18 17 18 19 18 19 19 19 19 19 19 20 20 20 20 21 21 20 20 20 20 20 20 20 21 20
5 6 7 7 7 8 9 9 10 12 13 13 14 16 17 17 18 18 17 17 17 18 18 18 18 17 17 17 18 18 18 18 18 18 18 18 19 19 19 19 18 18 18 18
5 6 6 6 6 7 8 8 9 11 12 12 13 15 16 16 16 16 16 17 17 18 17 16 16 16 15 16 16 16 16 16 16 16 16 17 16 16 16 16 16 17 16 16
5 5 5 5 6 6 7 8 9 10 11 12 13 14 15 15 16 16 16 17 17 17 16 15 14 14 14 14 13 13 13 13 13 13 13 13 13 13 13 13 13 13 13 13
4 4 4 4 5 6 7 8 9 10 11 12 13 14 15 15 16 16 16 17 17 16 14 13 12 11 11 11 11 11 11 11 10 10 10 10 10 11 11 11 11 11 11 11
3 3 3 4 5 6 7 8 9 10 10 12 13 14 15 15 16 16 16 16 16 15 13 12 10 10 9 10 10 10 9 8 8 8 9 10 10 10 9 9 9 9 9 9
3 3 3 4 5 5 6 7 8 9 10 11 12 13 14 15 16 16 16 16 15 14 13 11 9 9 9 10 10 9 8 8 8 9 10 10 9 9 8 7 7 7 7 7
3 3 3 4 4 5 7 8 8 9 9 10 12 13 13 14 15 15 15 15 15 14 13 11 10 9 9 10 10 9 9 9 9 10 10 9 9 9 9 8 7 5 5 5
2 2 2 3 4 5 6 8 8 8 9 10 11 13 13 14 15 15 15 15 14 13 13 12 12 11 10 10 11 11 10 10 10 10 9 9 10 10 9 8 7 5 4 4
1 1 2 3 4 4 6 7 8 9 9 10 12 13 13 14 15 15 15 14 14 13 13 13 12 12 12 11 11 11 11 10 10 10 10 10 9 8 8 8 7 6 6 5
1 2 2 3 3 4 5 6 8 9 9 10 12 13 13 13 14 15 15 15 14 14 14 13 13 13 13 12 11 11 11 10 10 10 10 10 10 9 8 8 7 7 7 7
1 2 2 3 3 4 5 6 7 8 9 10 11 12 13 13 14 14 15 15 15 15 15 14 14 13 14 13 12 12 11 11 10 10 10 10 10 9 9 8 7 7 7 8
2 2 3 3 4 4 5 6 7 8 9 10 11 12 13 13 14 14 14 14 14 15 15 15 15 14 14 14 13 13 13 12 11 11 10 10 10 9 9 9 8 7 7 7
4 4 4 3 4 5 5 6 7 8 9 10 11 11 12 13 13 13 14 14 14 14 14 14 14 15 15 15 14 14 14 13 12 12 11 10 9 9 9 9 8 8 7 7
4 5 5 5 5 5 6 6 7 8 9 10 11 11 12 13 13 14 13 13 13 13 14 14 14 14 14 14 14 14 14 13 13 12 11 10 9 9 8 8 8 8 8 7
6 6 6 6 6 7 7 7 8 9 9 10 11 11 12 13 14 14 14 14 14 14 14 14 14 14 15 15 14 14 14 13 12 11 10 10 10 9 8 8 7 7 7 6
7 7 7 8 8 8 8 8 9 9 10 10 11 11 12 13 13 14 14 14 14 14 14 14 14 14 14 14 14 14 14 13 13 12 10 9 8 7 6 6 5 5 5 5
8 8 8 8 9 9 9 9 9 10 10 11 11 12 12 13 13 13 14 14 14 14 14 14 13 14 14 14 14 14 13 13 12 12 10 9 8 7 6 5 4 5 5 4
8 8 8 8 8 8 8 9 9 9 10 11 11 12 12 12 13 13 14 14 14 14 14 14 14 14 14 14 14 13 13 13 12 11 10 9 8 7 6 5 4 4 4 3
6 6 7 7 7 7 7 8 8 9 10 10 11 11 11 12 13 13 13 14 14 14 14 14 13 13 14 14 13 13 12 12 11 11 10 9 9 8 7 6 5 4 4 4
4 5 5 6 6 7 7 7 8 8 9 10 10 11 11 11 12 12 13 13 14 14 14 14 14 13 13 13 13 13 12 12 11 11 10 10 9 9 8 8 7 6 6 6
3 3 4 4 5 6 6 7 8 9 9 10 10 11 11 12 12 12 13 13 14 14 15 15 14 14 13 13 13 13 13 12 12 11 11 11 10 10 10 9 9 8 8 8
1 2 2 3 5 6 6 7 8 9 10 10 11 11 12 12 12 13 13 14 14 15 16 16 15 15 14 14 14 14 14 14 13 13 13 12 12 12 12 12 11 11 11 11
1 1 2 4 5 6 7 7 8 9 10 11 12 12 12 13 14 14 15 15 16 17 17 17 16 16 15 15 15 15 15 15 15 15 15 16 16 15 15 15 15 15 15 16